���t,����,�O�C���x,�����t���O,�O�C���Ύ��x,�����t���O,���ԋ�C���x,�����t���O,���ԑ��Ύ��x,�����t���O,�g�C���^���N����,�����t���O,���֋�C���x,�����t���O,��󒲎����x,�����t���O
2004/9/1,0:00,23.5,0,74.0,0,29.0,0,65.5,0,27.9,0,28.4,0,28.4,0
2004/9/1,0:15,23.1,0,76.0,0,29.0,0,65.7,0,27.9,0,28.4,0,28.4,0
2004/9/1,0:30,23.0,0,78.0,0,29.0,0,65.8,0,28.0,0,28.3,0,28.3,0
2004/9/1,0:45,22.9,0,80.0,0,28.9,0,66.1,0,28.0,0,28.3,0,28.2,0
2004/9/1,1:00,22.6,0,80.0,0,28.9,0,66.2,0,28.0,0,28.3,0,28.1,0
2004/9/1,1:15,22.8,0,81.0,0,28.9,0,66.6,0,26.8,0,28.3,0,28.1,0
2004/9/1,1:30,22.7,0,81.0,0,28.8,0,66.9,0,26.9,0,28.3,0,28.0,0
2004/9/1,1:45,22.2,0,83.0,0,28.8,0,67.0,0,26.9,0,28.3,0,27.9,0
2004/9/1,2:00,21.8,0,85.0,0,28.7,0,67.0,0,27.0,0,28.2,0,27.9,0
2004/9/1,2:15,21.5,0,83.0,0,28.6,0,67.0,0,27.0,0,28.2,0,27.8,0
2004/9/1,2:30,21.7,0,82.0,0,28.6,0,67.0,0,27.0,0,28.2,0,27.7,0
2004/9/1,2:45,22.0,0,81.0,0,28.5,0,67.2,0,27.1,0,28.1,0,27.6,0
2004/9/1,3:00,21.5,0,81.0,0,28.5,0,67.1,0,27.1,0,28.1,0,27.5,0
2004/9/1,3:15,21.7,0,79.0,0,28.4,0,67.0,0,27.2,0,28.1,0,27.4,0
2004/9/1,3:30,21.6,0,79.0,0,28.3,0,67.0,0,27.2,0,28.0,0,27.3,0
2004/9/1,3:45,21.6,0,75.0,0,28.3,0,67.1,0,27.2,0,28.0,0,27.3,0
2004/9/1,4:00,21.5,0,75.0,0,28.2,0,67.0,0,27.3,0,28.0,0,27.2,0
2004/9/1,4:15,21.8,0,68.0,0,28.1,0,67.0,0,27.3,0,27.9,0,27.1,0
2004/9/1,4:30,21.7,0,66.0,0,28.0,0,66.9,0,27.3,0,27.9,0,27.1,0
2004/9/1,4:45,21.5,0,72.0,0,28.0,0,66.8,0,27.4,0,27.8,0,27.0,0
2004/9/1,5:00,21.2,0,72.0,0,27.9,0,66.6,0,27.4,0,27.8,0,26.9,0
2004/9/1,5:15,21.2,0,73.0,0,27.9,0,66.4,0,27.4,0,27.7,0,26.9,0
2004/9/1,5:30,21.4,0,68.0,0,27.8,0,66.2,0,27.5,0,27.7,0,26.8,0
2004/9/1,5:45,21.3,0,70.0,0,27.8,0,66.3,0,27.5,0,27.7,0,26.7,0
2004/9/1,6:00,21.7,0,66.0,0,27.7,0,66.1,0,27.5,0,27.6,0,26.7,0
2004/9/1,6:15,22.0,0,65.0,0,27.6,0,65.9,0,27.5,0,27.6,0,26.6,0
2004/9/1,6:30,21.8,0,68.0,0,27.6,0,65.9,0,27.5,0,27.5,0,26.5,0
2004/9/1,6:45,21.6,0,69.0,0,27.6,0,66.4,0,27.7,0,27.5,0,26.5,0
2004/9/1,7:00,21.5,0,68.0,0,27.5,0,66.9,0,27.2,0,27.5,0,26.4,0
2004/9/1,7:15,21.5,0,70.0,0,27.5,0,67.3,0,27.2,0,27.4,0,26.4,0
2004/9/1,7:30,21.6,0,72.0,0,27.5,0,67.7,0,27.2,0,27.4,0,26.4,0
2004/9/1,7:45,21.7,0,77.0,0,27.5,0,67.7,0,27.0,0,27.4,0,26.4,0
2004/9/1,8:00,21.9,0,85.0,0,27.5,0,67.4,0,27.0,0,27.3,0,26.4,0
2004/9/1,8:15,21.8,0,85.0,0,27.5,0,67.1,0,27.0,0,27.3,0,26.3,0
2004/9/1,8:30,21.7,0,82.0,0,27.4,0,66.9,0,27.0,0,27.3,0,26.3,0
2004/9/1,8:45,21.8,0,78.0,0,27.4,0,67.0,0,27.1,0,27.2,0,26.3,0
2004/9/1,9:00,21.9,0,80.0,0,27.3,0,66.9,0,27.1,0,27.2,0,26.3,0
2004/9/1,9:15,22.0,0,79.0,0,27.3,0,66.9,0,27.1,0,27.2,0,26.2,0
2004/9/1,9:30,22.1,0,77.0,0,27.3,0,66.8,0,27.2,0,27.1,0,26.2,0
2004/9/1,9:45,22.7,0,76.0,0,27.3,0,66.9,0,27.2,0,27.1,0,26.2,0
2004/9/1,10:00,23.0,0,74.0,0,27.2,0,66.8,0,27.2,0,27.1,0,26.2,0
2004/9/1,10:15,23.5,0,74.0,0,27.2,0,66.9,0,27.2,0,27.0,0,26.3,0
2004/9/1,10:30,24.0,0,70.0,0,27.2,0,66.9,0,27.2,0,27.0,0,26.4,0
2004/9/1,10:45,24.2,0,68.0,0,27.2,0,67.0,0,27.3,0,27.0,0,26.5,0
2004/9/1,11:00,24.6,0,68.0,0,27.3,0,67.0,0,27.3,0,27.0,0,26.6,0
2004/9/1,11:15,25.2,0,64.0,0,27.3,0,67.0,0,26.2,0,26.9,0,26.6,0
2004/9/1,11:30,25.6,0,63.0,0,27.3,0,67.0,0,26.2,0,26.9,0,26.7,0
2004/9/1,11:45,26.1,0,63.0,0,27.3,0,67.0,0,26.3,0,26.9,0,26.8,0
2004/9/1,12:00,27.0,0,57.0,0,27.4,0,67.0,0,26.3,0,27.0,0,26.9,0
2004/9/1,12:15,27.3,0,55.0,0,27.4,0,67.1,0,26.3,0,27.0,0,27.1,0
2004/9/1,12:30,27.5,0,53.0,0,27.5,0,67.2,0,26.4,0,27.0,0,27.2,0
2004/9/1,12:45,27.3,0,52.0,0,27.5,0,67.0,0,26.4,0,27.0,0,27.3,0
2004/9/1,13:00,27.0,0,48.0,0,27.6,0,66.9,0,26.5,0,27.0,0,27.4,0
2004/9/1,13:15,27.0,0,50.0,0,27.6,0,66.8,0,26.5,0,27.0,0,27.5,0
2004/9/1,13:30,26.8,0,50.0,0,27.7,0,66.5,0,26.6,0,27.0,0,27.6,0
2004/9/1,13:45,26.7,0,49.0,0,27.7,0,66.2,0,26.6,0,27.0,0,27.6,0
2004/9/1,14:00,26.6,0,46.0,0,27.7,0,65.9,0,26.6,0,27.0,0,27.7,0
2004/9/1,14:15,26.5,0,52.0,0,27.7,0,65.5,0,26.7,0,27.0,0,27.7,0
2004/9/1,14:30,26.0,0,47.0,0,27.7,0,65.3,0,26.7,0,27.0,0,27.7,0
2004/9/1,14:45,25.8,0,51.0,0,27.7,0,65.3,0,26.8,0,27.0,0,27.8,0
2004/9/1,15:00,25.3,0,55.0,0,27.7,0,65.0,0,26.8,0,27.0,0,27.8,0
2004/9/1,15:15,24.8,0,61.0,0,27.7,0,64.8,0,26.8,0,27.0,0,27.8,0
2004/9/1,15:30,24.6,0,63.0,0,27.7,0,64.6,0,26.9,0,27.0,0,27.8,0
2004/9/1,15:45,24.5,0,65.0,0,27.7,0,64.7,0,26.9,0,27.0,0,27.8,0
2004/9/1,16:00,24.6,0,61.0,0,27.7,0,64.9,0,26.9,0,27.0,0,27.8,0
2004/9/1,16:15,24.6,0,63.0,0,27.7,0,65.4,0,27.0,0,27.0,0,27.7,0
2004/9/1,16:30,24.1,0,71.0,0,27.7,0,65.3,0,27.0,0,27.0,0,27.7,0
2004/9/1,16:45,23.6,0,70.0,0,27.7,0,65.4,0,27.0,0,27.0,0,27.6,0
2004/9/1,17:00,23.0,0,70.0,0,27.7,0,65.5,0,27.1,0,27.0,0,27.6,0
2004/9/1,17:15,23.0,0,68.0,0,27.6,0,65.6,0,27.1,0,27.0,0,27.5,0
2004/9/1,17:30,22.7,0,77.0,0,27.6,0,65.6,0,27.1,0,27.0,0,27.4,0
2004/9/1,17:45,22.7,0,76.0,0,27.6,0,65.7,0,27.2,0,27.0,0,27.3,0
2004/9/1,18:00,22.2,0,77.0,0,27.5,0,65.9,0,27.2,0,27.0,0,27.2,0
2004/9/1,18:15,21.9,0,75.0,0,27.5,0,65.9,0,27.2,0,27.0,0,27.1,0
2004/9/1,18:30,21.9,0,76.0,0,27.4,0,66.0,0,27.2,0,27.0,0,27.0,0
2004/9/1,18:45,21.5,0,79.0,0,27.4,0,66.0,0,27.3,0,27.0,0,26.9,0
2004/9/1,19:00,21.4,0,77.0,0,27.4,0,65.9,0,27.3,0,26.9,0,26.8,0
2004/9/1,19:15,21.2,0,77.0,0,27.4,0,66.0,0,26.2,0,26.9,0,26.7,0
2004/9/1,19:30,21.2,0,80.0,0,27.3,0,66.1,0,26.2,0,26.9,0,26.6,0
2004/9/1,19:45,21.1,0,80.0,0,27.3,0,66.1,0,26.3,0,26.9,0,26.6,0
2004/9/1,20:00,21.0,0,82.0,0,27.3,0,66.1,0,26.3,0,26.9,0,26.5,0
2004/9/1,20:15,21.0,0,84.0,0,27.2,0,66.0,0,26.4,0,26.9,0,26.4,0
2004/9/1,20:30,20.8,0,84.0,0,27.2,0,66.1,0,26.4,0,26.8,0,26.3,0
2004/9/1,20:45,20.9,0,86.0,0,27.1,0,66.1,0,26.4,0,26.8,0,26.2,0
2004/9/1,21:00,20.7,0,86.0,0,27.1,0,66.2,0,26.5,0,26.8,0,26.1,0
2004/9/1,21:15,20.7,0,86.0,0,27.0,0,66.3,0,26.5,0,26.8,0,26.1,0
2004/9/1,21:30,20.5,0,86.0,0,27.0,0,66.4,0,26.5,0,26.8,0,26.0,0
2004/9/1,21:45,20.6,0,89.0,0,26.9,0,66.5,0,26.6,0,26.7,0,26.0,0
2004/9/1,22:00,20.7,0,89.0,0,26.9,0,66.6,0,26.6,0,26.7,0,25.9,0
2004/9/1,22:15,20.8,0,88.0,0,26.9,0,67.7,0,26.7,0,26.7,0,25.8,0
2004/9/1,22:30,20.9,0,86.0,0,26.9,0,69.6,0,26.7,0,26.7,0,25.8,0
2004/9/1,22:45,20.9,0,89.0,0,26.9,0,69.1,0,26.7,0,26.7,0,25.8,0
2004/9/1,23:00,20.7,0,86.0,0,26.9,0,68.5,0,26.7,0,26.6,0,25.7,0
2004/9/1,23:15,20.8,0,83.0,0,26.8,0,68.2,0,26.8,0,26.6,0,25.7,0
2004/9/1,23:30,20.9,0,80.0,0,26.8,0,68.1,0,26.8,0,26.6,0,25.6,0
2004/9/1,23:45,21.0,0,81.0,0,26.8,0,68.1,0,26.8,0,26.5,0,25.6,0
2004/9/2,0:00,20.8,0,83.0,0,26.8,0,67.9,0,26.8,0,26.5,0,25.6,0
2004/9/2,0:15,20.7,0,83.0,0,26.8,0,68.1,0,26.6,0,26.5,0,25.5,0
2004/9/2,0:30,20.7,0,85.0,0,26.8,0,67.8,0,26.6,0,26.5,0,25.5,0
2004/9/2,0:45,20.6,0,86.0,0,26.7,0,67.6,0,26.7,0,26.5,0,25.5,0
2004/9/2,1:00,20.5,0,88.0,0,26.7,0,67.6,0,26.7,0,26.4,0,25.4,0
2004/9/2,1:15,20.4,0,89.0,0,26.7,0,67.5,0,26.7,0,26.4,0,25.4,0
2004/9/2,1:30,20.3,0,89.0,0,26.7,0,67.6,0,26.7,0,26.4,0,25.3,0
2004/9/2,1:45,20.1,0,89.0,0,26.6,0,67.6,0,26.8,0,26.3,0,25.3,0
2004/9/2,2:00,20.1,0,89.0,0,26.6,0,67.7,0,25.6,0,26.3,0,25.2,0
2004/9/2,2:15,20.0,0,89.0,0,26.6,0,67.5,0,25.7,0,26.3,0,25.2,0
2004/9/2,2:30,20.1,0,89.0,0,26.5,0,67.4,0,25.7,0,26.3,0,25.1,0
2004/9/2,2:45,20.2,0,88.0,0,26.4,0,67.4,0,25.8,0,26.2,0,25.1,0
2004/9/2,3:00,20.1,0,89.0,0,26.4,0,67.5,0,25.8,0,26.2,0,25.1,0
2004/9/2,3:15,20.2,0,88.0,0,26.3,0,67.6,0,25.8,0,26.2,0,25.0,0
2004/9/2,3:30,20.2,0,88.0,0,26.3,0,67.6,0,25.9,0,26.1,0,25.0,0
2004/9/2,3:45,20.2,0,88.0,0,26.2,0,67.7,0,25.9,0,26.1,0,25.0,0
2004/9/2,4:00,20.1,0,88.0,0,26.2,0,67.8,0,26.0,0,26.1,0,24.9,0
2004/9/2,4:15,20.1,0,88.0,0,26.1,0,67.9,0,26.0,0,26.1,0,24.9,0
2004/9/2,4:30,20.1,0,90.0,0,26.1,0,67.9,0,26.0,0,26.0,0,24.9,0
2004/9/2,4:45,20.1,0,90.0,0,26.1,0,68.0,0,26.1,0,26.0,0,24.8,0
2004/9/2,5:00,20.0,0,90.0,0,26.0,0,68.1,0,26.1,0,25.9,0,24.8,0
2004/9/2,5:15,20.0,0,89.0,0,26.0,0,68.2,0,26.1,0,25.9,0,24.7,0
2004/9/2,5:30,20.0,0,89.0,0,25.9,0,68.3,0,26.1,0,25.9,0,24.7,0
2004/9/2,5:45,19.8,0,90.0,0,25.9,0,68.4,0,26.2,0,25.8,0,24.7,0
2004/9/2,6:00,19.8,0,91.0,0,25.8,0,68.4,0,26.2,0,25.8,0,24.7,0
2004/9/2,6:15,20.0,0,91.0,0,25.8,0,68.5,0,26.2,0,25.8,0,24.6,0
2004/9/2,6:30,20.0,0,91.0,0,25.7,0,68.4,0,26.2,0,25.7,0,24.6,0
2004/9/2,6:45,20.1,0,90.0,0,25.7,0,68.9,0,26.3,0,25.7,0,24.6,0
2004/9/2,7:00,20.2,0,89.0,0,25.7,0,70.5,0,26.3,0,25.7,0,24.6,0
2004/9/2,7:15,20.3,0,89.0,0,25.7,0,70.8,0,26.3,0,25.7,0,24.6,0
2004/9/2,7:30,20.3,0,88.0,0,25.7,0,70.9,0,26.3,0,25.6,0,24.6,0
2004/9/2,7:45,20.5,0,88.0,0,25.8,0,70.7,0,26.3,0,25.6,0,24.5,0
2004/9/2,8:00,20.8,0,87.0,0,25.8,0,70.9,0,26.3,0,25.6,0,24.6,0
2004/9/2,8:15,20.9,0,85.0,0,25.8,0,70.4,0,26.4,0,25.6,0,24.6,0
2004/9/2,8:30,21.2,0,86.0,0,25.8,0,69.8,0,26.4,0,25.6,0,24.6,0
2004/9/2,8:45,21.7,0,85.0,0,25.8,0,69.6,0,26.4,0,25.6,0,24.6,0
2004/9/2,9:00,22.0,0,82.0,0,25.8,0,69.3,0,26.4,0,25.5,0,24.7,0
2004/9/2,9:15,22.3,0,79.0,0,25.8,0,69.2,0,26.5,0,25.5,0,24.7,0
2004/9/2,9:30,22.7,0,77.0,0,25.9,0,69.0,0,26.5,0,25.5,0,24.8,0
2004/9/2,9:45,23.5,0,75.0,0,25.9,0,68.9,0,26.5,0,25.5,0,24.9,0
2004/9/2,10:00,23.9,0,72.0,0,26.0,0,68.7,0,26.5,0,25.5,0,25.0,0
2004/9/2,10:15,24.8,0,70.0,0,26.1,0,68.6,0,26.6,0,25.5,0,25.1,0
2004/9/2,10:30,25.4,0,67.0,0,26.2,0,68.4,0,26.6,0,25.5,0,25.2,0
2004/9/2,10:45,25.8,0,65.0,0,26.3,0,68.2,0,26.6,0,25.5,0,25.4,0
2004/9/2,11:00,26.5,0,66.0,0,26.4,0,68.0,0,26.6,0,25.5,0,25.5,0
2004/9/2,11:15,27.0,0,63.0,0,26.5,0,67.8,0,26.6,0,25.5,0,25.6,0
2004/9/2,11:30,27.5,0,61.0,0,26.6,0,67.6,0,26.6,0,25.6,0,25.8,0
2004/9/2,11:45,27.9,0,60.0,0,26.8,0,67.4,0,26.7,0,25.6,0,25.9,0
2004/9/2,12:00,28.3,0,59.0,0,26.9,0,67.1,0,26.7,0,25.7,0,26.1,0
2004/9/2,12:15,28.6,0,56.0,0,27.0,0,67.0,0,26.7,0,25.7,0,26.2,0
2004/9/2,12:30,29.0,0,55.0,0,27.2,0,66.9,0,26.7,0,25.8,0,26.4,0
2004/9/2,12:45,29.4,0,55.0,0,27.3,0,66.6,0,26.7,0,25.8,0,26.5,0
2004/9/2,13:00,29.8,0,52.0,0,27.5,0,66.3,0,26.8,0,25.9,0,26.6,0
2004/9/2,13:15,29.9,0,53.0,0,27.6,0,66.1,0,26.8,0,25.9,0,26.8,0
2004/9/2,13:30,30.2,0,54.0,0,27.7,0,65.9,0,26.8,0,26.0,0,27.0,0
2004/9/2,13:45,30.2,0,53.0,0,27.9,0,65.8,0,26.8,0,26.1,0,27.1,0
2004/9/2,14:00,30.3,0,54.0,0,28.0,0,65.8,0,26.8,0,26.1,0,27.3,0
2004/9/2,14:15,30.2,0,53.0,0,28.1,0,65.7,0,26.9,0,26.2,0,27.4,0
2004/9/2,14:30,30.0,0,54.0,0,28.1,0,65.7,0,26.9,0,26.3,0,27.5,0
2004/9/2,14:45,30.4,0,54.0,0,28.2,0,65.8,0,26.9,0,26.3,0,27.6,0
2004/9/2,15:00,30.4,0,53.0,0,28.3,0,65.9,0,26.9,0,26.4,0,27.8,0
2004/9/2,15:15,30.2,0,52.0,0,28.4,0,66.0,0,27.0,0,26.5,0,27.9,0
2004/9/2,15:30,30.3,0,50.0,0,28.4,0,66.0,0,27.0,0,26.5,0,28.0,0
2004/9/2,15:45,30.3,0,49.0,0,28.5,0,66.0,0,27.0,0,26.6,0,28.1,0
2004/9/2,16:00,30.3,0,48.0,0,28.5,0,66.1,0,27.0,0,26.7,0,28.2,0
2004/9/2,16:15,30.2,0,47.0,0,28.6,0,66.1,0,27.0,0,26.8,0,28.3,0
2004/9/2,16:30,30.1,0,49.0,0,28.6,0,66.1,0,27.1,0,26.8,0,28.4,0
2004/9/2,16:45,30.0,0,50.0,0,28.6,0,66.0,0,27.1,0,26.9,0,28.6,0
2004/9/2,17:00,29.7,0,52.0,0,28.7,0,66.1,0,27.1,0,27.0,0,28.7,0
2004/9/2,17:15,29.4,0,57.0,0,28.7,0,66.1,0,27.2,0,27.0,0,28.8,0
2004/9/2,17:30,28.8,0,59.0,0,28.7,0,66.0,0,27.2,0,27.0,0,28.8,0
2004/9/2,17:45,28.4,0,61.0,0,28.7,0,66.1,0,27.2,0,27.1,0,28.9,0
2004/9/2,18:00,27.9,0,61.0,0,28.7,0,66.2,0,27.2,0,27.1,0,28.9,0
2004/9/2,18:15,27.4,0,62.0,0,28.6,0,66.3,0,27.3,0,27.2,0,28.9,0
2004/9/2,18:30,27.0,0,64.0,0,28.6,0,66.5,0,27.3,0,27.2,0,29.0,0
2004/9/2,18:45,26.7,0,64.0,0,28.6,0,66.6,0,27.3,0,27.2,0,29.0,0
2004/9/2,19:00,26.4,0,66.0,0,28.6,0,66.7,0,27.3,0,27.2,0,28.9,0
2004/9/2,19:15,26.1,0,69.0,0,28.5,0,66.7,0,27.4,0,27.2,0,28.9,0
2004/9/2,19:30,25.8,0,72.0,0,28.5,0,66.8,0,27.4,0,27.2,0,28.8,0
2004/9/2,19:45,25.5,0,73.0,0,28.4,0,66.8,0,27.4,0,27.2,0,28.7,0
2004/9/2,20:00,25.3,0,75.0,0,28.3,0,67.0,0,27.4,0,27.2,0,28.6,0
2004/9/2,20:15,25.1,0,76.0,0,28.3,0,67.2,0,27.5,0,27.2,0,28.5,0
2004/9/2,20:30,25.0,0,77.0,0,28.2,0,67.4,0,27.5,0,27.2,0,28.4,0
2004/9/2,20:45,24.9,0,79.0,0,28.2,0,67.6,0,27.5,0,27.2,0,28.3,0
2004/9/2,21:00,24.7,0,79.0,0,28.1,0,67.8,0,27.5,0,27.2,0,28.2,0
2004/9/2,21:15,24.2,0,79.0,0,28.1,0,68.0,0,27.6,0,27.2,0,28.1,0
2004/9/2,21:30,24.1,0,80.0,0,28.0,0,68.1,0,27.6,0,27.2,0,28.0,0
2004/9/2,21:45,24.2,0,81.0,0,28.0,0,68.6,0,27.6,0,27.2,0,27.9,0
2004/9/2,22:00,23.8,0,82.0,0,28.0,0,69.4,0,26.9,0,27.2,0,27.9,0
2004/9/2,22:15,23.5,0,83.0,0,28.0,0,69.4,0,26.9,0,27.2,0,27.8,0
2004/9/2,22:30,23.5,0,84.0,0,28.0,0,69.4,0,26.9,0,27.2,0,27.7,0
2004/9/2,22:45,23.3,0,84.0,0,28.0,0,69.0,0,27.0,0,27.2,0,27.6,0
2004/9/2,23:00,22.8,0,86.0,0,28.0,0,69.1,0,27.0,0,27.2,0,27.5,0
2004/9/2,23:15,22.6,0,87.0,0,28.0,0,69.0,0,27.0,0,27.2,0,27.5,0
2004/9/2,23:30,22.5,0,87.0,0,28.0,0,69.1,0,27.1,0,27.2,0,27.4,0
2004/9/2,23:45,22.5,0,87.0,0,27.9,0,68.9,0,27.1,0,27.2,0,27.3,0
2004/9/3,0:00,22.1,0,89.0,0,27.9,0,70.1,0,27.1,0,27.2,0,27.3,0
2004/9/3,0:15,21.9,0,90.0,0,27.8,0,70.5,0,27.2,0,27.2,0,27.2,0
2004/9/3,0:30,21.8,0,89.0,0,27.8,0,69.7,0,27.2,0,27.2,0,27.1,0
2004/9/3,0:45,21.9,0,89.0,0,27.7,0,67.4,0,27.2,0,27.2,0,27.0,0
2004/9/3,1:00,21.8,0,89.0,0,27.7,0,68.9,0,27.3,0,27.2,0,26.9,0
2004/9/3,1:15,21.5,0,89.0,0,27.7,0,69.1,0,27.3,0,27.2,0,26.8,0
2004/9/3,1:30,21.3,0,90.0,0,27.6,0,69.4,0,26.7,0,27.1,0,26.7,0
2004/9/3,1:45,21.0,0,90.0,0,27.6,0,69.1,0,26.7,0,27.1,0,26.6,0
2004/9/3,2:00,21.1,0,90.0,0,27.5,0,69.1,0,26.7,0,27.1,0,26.5,0
2004/9/3,2:15,21.2,0,89.0,0,27.5,0,69.0,0,26.8,0,27.1,0,26.5,0
2004/9/3,2:30,21.3,0,88.0,0,27.4,0,69.0,0,26.8,0,27.0,0,26.4,0
2004/9/3,2:45,21.1,0,86.0,0,27.4,0,69.1,0,26.8,0,27.0,0,26.3,0
2004/9/3,3:00,21.0,0,88.0,0,27.3,0,69.1,0,26.9,0,27.0,0,26.3,0
2004/9/3,3:15,21.0,0,87.0,0,27.2,0,69.1,0,26.9,0,27.0,0,26.2,0
2004/9/3,3:30,20.8,0,88.0,0,27.2,0,69.2,0,26.9,0,26.9,0,26.1,0
2004/9/3,3:45,20.8,0,89.0,0,27.1,0,69.2,0,27.0,0,26.9,0,26.1,0
2004/9/3,4:00,21.0,0,87.0,0,27.0,0,69.1,0,27.0,0,26.9,0,26.0,0
2004/9/3,4:15,20.6,0,88.0,0,27.0,0,69.2,0,27.0,0,26.8,0,25.9,0
2004/9/3,4:30,20.8,0,88.0,0,27.0,0,69.1,0,27.0,0,26.8,0,25.8,0
2004/9/3,4:45,20.8,0,87.0,0,26.9,0,69.1,0,27.1,0,26.8,0,25.8,0
2004/9/3,5:00,20.9,0,86.0,0,26.8,0,69.2,0,27.1,0,26.7,0,25.7,0
2004/9/3,5:15,20.5,0,87.0,0,26.8,0,69.2,0,27.1,0,26.7,0,25.6,0
2004/9/3,5:30,20.6,0,88.0,0,26.7,0,69.2,0,27.1,0,26.7,0,25.6,0
2004/9/3,5:45,20.5,0,87.0,0,26.6,0,69.2,0,27.1,0,26.6,0,25.5,0
2004/9/3,6:00,20.1,0,88.0,0,26.6,0,69.2,0,27.2,0,26.6,0,25.5,0
2004/9/3,6:15,19.9,0,89.0,0,26.5,0,69.1,0,27.2,0,26.5,0,25.4,0
2004/9/3,6:30,20.0,0,91.0,0,26.4,0,69.1,0,27.2,0,26.5,0,25.3,0
2004/9/3,6:45,20.3,0,89.0,0,26.4,0,69.3,0,27.2,0,26.5,0,25.3,0
2004/9/3,7:00,20.8,0,86.0,0,26.4,0,69.4,0,27.2,0,26.4,0,25.2,0
2004/9/3,7:15,21.2,0,84.0,0,26.3,0,69.5,0,27.2,0,26.4,0,25.2,0
2004/9/3,7:30,23.1,0,67.0,0,26.3,0,69.8,0,27.2,0,26.4,0,25.2,0
2004/9/3,7:45,22.9,0,63.0,0,26.3,0,69.8,0,27.2,0,26.3,0,25.2,0
2004/9/3,8:00,22.9,0,64.0,0,26.4,0,70.6,0,26.5,0,26.3,0,25.2,0
2004/9/3,8:15,23.6,0,62.0,0,26.4,0,69.7,0,26.5,0,26.3,0,25.3,0
2004/9/3,8:30,24.1,0,61.0,0,26.4,0,69.1,0,26.6,0,26.3,0,25.4,0
2004/9/3,8:45,24.5,0,62.0,0,26.4,0,68.6,0,26.6,0,26.2,0,25.4,0
2004/9/3,9:00,24.9,0,63.0,0,26.5,0,68.4,0,26.6,0,26.2,0,25.5,0
2004/9/3,9:15,25.5,0,67.0,0,26.5,0,68.2,0,26.7,0,26.2,0,25.6,0
2004/9/3,9:30,26.1,0,63.0,0,26.6,0,68.1,0,26.7,0,26.2,0,25.7,0
2004/9/3,9:45,26.8,0,62.0,0,26.7,0,67.9,0,26.7,0,26.2,0,25.8,0
2004/9/3,10:00,27.1,0,57.0,0,26.8,0,67.9,0,26.7,0,26.2,0,25.9,0
2004/9/3,10:15,27.3,0,56.0,0,26.9,0,67.8,0,26.8,0,26.2,0,26.1,0
2004/9/3,10:30,28.2,0,56.0,0,27.1,0,67.5,0,26.8,0,26.2,0,26.2,0
2004/9/3,10:45,28.8,0,55.0,0,27.3,0,67.1,0,26.8,0,26.2,0,26.3,0
2004/9/3,11:00,29.0,0,54.0,0,27.4,0,67.0,0,26.8,0,26.3,0,26.5,0
2004/9/3,11:15,29.2,0,54.0,0,27.6,0,66.7,0,26.8,0,26.3,0,26.6,0
2004/9/3,11:30,29.4,0,52.0,0,27.7,0,66.5,0,26.9,0,26.4,0,26.8,0
2004/9/3,11:45,29.6,0,53.0,0,27.8,0,66.3,0,26.9,0,26.4,0,26.9,0
2004/9/3,12:00,29.5,0,55.0,0,28.0,0,66.1,0,26.9,0,26.5,0,27.1,0
2004/9/3,12:15,29.7,0,57.0,0,28.1,0,66.0,0,26.9,0,26.5,0,27.3,0
2004/9/3,12:30,29.8,0,56.0,0,28.2,0,66.1,0,27.0,0,26.6,0,27.4,0
2004/9/3,12:45,29.8,0,57.0,0,28.3,0,65.8,0,27.0,0,26.6,0,27.6,0
2004/9/3,13:00,30.0,0,57.0,0,28.3,0,66.1,0,27.0,0,26.7,0,27.7,0
2004/9/3,13:15,30.3,0,57.0,0,28.5,0,65.9,0,27.0,0,26.7,0,27.8,0
2004/9/3,13:30,30.4,0,51.0,0,28.5,0,65.9,0,27.1,0,26.8,0,28.0,0
2004/9/3,13:45,30.5,0,54.0,0,28.7,0,65.8,0,27.1,0,26.8,0,28.1,0
2004/9/3,14:00,30.3,0,53.0,0,28.7,0,66.2,0,27.1,0,26.9,0,28.2,0
2004/9/3,14:15,30.3,0,54.0,0,28.7,0,66.2,0,27.1,0,26.9,0,28.3,0
2004/9/3,14:30,30.4,0,53.0,0,28.7,0,66.3,0,27.2,0,27.0,0,28.4,0
2004/9/3,14:45,30.1,0,56.0,0,28.9,0,66.1,0,27.2,0,27.1,0,28.5,0
2004/9/3,15:00,30.2,0,57.0,0,28.9,0,66.3,0,27.2,0,27.1,0,28.6,0
2004/9/3,15:15,30.5,0,55.0,0,28.9,0,66.4,0,27.2,0,27.2,0,28.7,0
2004/9/3,15:30,29.9,0,58.0,0,29.0,0,66.2,0,27.3,0,27.2,0,28.8,0
2004/9/3,15:45,29.7,0,57.0,0,29.0,0,66.5,0,27.3,0,27.3,0,28.8,0
2004/9/3,16:00,29.7,0,58.0,0,29.0,0,66.7,0,27.3,0,27.3,0,28.9,0
2004/9/3,16:15,29.5,0,59.0,0,29.0,0,66.7,0,27.3,0,27.4,0,29.0,0
2004/9/3,16:30,29.2,0,60.0,0,29.1,0,66.8,0,27.4,0,27.4,0,29.1,0
2004/9/3,16:45,29.1,0,61.0,0,29.1,0,67.0,0,27.4,0,27.5,0,29.1,0
2004/9/3,17:00,28.6,0,63.0,0,29.1,0,67.1,0,27.4,0,27.5,0,29.2,0
2004/9/3,17:15,28.3,0,64.0,0,29.1,0,67.3,0,27.5,0,27.5,0,29.2,0
2004/9/3,17:30,28.2,0,64.0,0,29.0,0,67.4,0,27.5,0,27.6,0,29.3,0
2004/9/3,17:45,28.0,0,64.0,0,29.0,0,67.6,0,27.5,0,27.6,0,29.3,0
2004/9/3,18:00,27.7,0,64.0,0,29.0,0,67.7,0,27.5,0,27.6,0,29.3,0
2004/9/3,18:15,27.6,0,64.0,0,29.0,0,67.8,0,27.6,0,27.6,0,29.3,0
2004/9/3,18:30,27.4,0,64.0,0,29.0,0,68.0,0,27.6,0,27.7,0,29.3,0
2004/9/3,18:45,27.2,0,63.0,0,28.9,0,68.0,0,27.6,0,27.7,0,29.3,0
2004/9/3,19:00,27.1,0,63.0,0,28.8,0,67.9,0,27.7,0,27.7,0,29.2,0
2004/9/3,19:15,27.0,0,60.0,0,28.8,0,68.0,0,27.7,0,27.7,0,29.1,0
2004/9/3,19:30,26.8,0,62.0,0,28.8,0,68.0,0,27.7,0,27.7,0,29.1,0
2004/9/3,19:45,26.6,0,67.0,0,28.7,0,67.8,0,27.7,0,27.7,0,29.0,0
2004/9/3,20:00,26.5,0,69.0,0,28.7,0,67.7,0,26.1,0,27.7,0,28.9,0
2004/9/3,20:15,26.3,0,70.0,0,28.7,0,67.8,0,26.1,0,27.7,0,28.8,0
2004/9/3,20:30,26.2,0,71.0,0,28.6,0,68.0,0,26.2,0,27.7,0,28.7,0
2004/9/3,20:45,26.1,0,71.0,0,28.6,0,68.2,0,26.2,0,27.7,0,28.7,0
2004/9/3,21:00,26.0,0,71.0,0,28.7,0,70.0,0,26.3,0,27.7,0,28.6,0
2004/9/3,21:15,25.9,0,72.0,0,28.7,0,71.1,0,26.3,0,27.7,0,28.6,0
2004/9/3,21:30,25.8,0,73.0,0,28.7,0,70.8,0,26.4,0,27.7,0,28.5,0
2004/9/3,21:45,25.6,0,74.0,0,28.8,0,70.5,0,26.4,0,27.8,0,28.5,0
2004/9/3,22:00,25.5,0,75.0,0,28.8,0,69.9,0,26.5,0,27.8,0,28.4,0
2004/9/3,22:15,25.3,0,76.0,0,28.8,0,69.4,0,26.5,0,27.8,0,28.3,0
2004/9/3,22:30,24.8,0,78.0,0,28.8,0,69.3,0,26.6,0,27.8,0,28.3,0
2004/9/3,22:45,24.8,0,78.0,0,28.8,0,69.3,0,26.6,0,27.8,0,28.2,0
2004/9/3,23:00,24.8,0,79.0,0,28.7,0,69.0,0,26.7,0,27.8,0,28.2,0
2004/9/3,23:15,24.8,0,78.0,0,28.7,0,69.2,0,26.7,0,27.8,0,28.1,0
2004/9/3,23:30,24.8,0,78.0,0,28.7,0,69.2,0,26.8,0,27.8,0,28.1,0
2004/9/3,23:45,24.6,0,79.0,0,28.7,0,69.3,0,26.8,0,27.8,0,28.0,0
2004/9/4,0:00,24.6,0,79.0,0,28.7,0,69.2,0,26.8,0,27.8,0,28.0,0
2004/9/4,0:15,24.4,0,80.0,0,28.6,0,69.2,0,26.9,0,27.8,0,27.9,0
2004/9/4,0:30,23.9,0,79.0,0,28.6,0,69.1,0,26.9,0,27.8,0,27.9,0
2004/9/4,0:45,24.1,0,76.0,0,28.6,0,69.1,0,27.0,0,27.7,0,27.8,0
2004/9/4,1:00,24.2,0,78.0,0,28.6,0,68.7,0,26.0,0,27.7,0,27.8,0
2004/9/4,1:15,24.1,0,79.0,0,28.5,0,68.2,0,26.0,0,27.7,0,27.7,0
2004/9/4,1:30,24.2,0,79.0,0,28.5,0,68.0,0,26.1,0,27.7,0,27.7,0
2004/9/4,1:45,23.7,0,72.0,0,28.4,0,67.7,0,26.1,0,27.7,0,27.6,0
2004/9/4,2:00,23.6,0,73.0,0,28.3,0,68.0,0,26.2,0,27.7,0,27.6,0
2004/9/4,2:15,23.5,0,72.0,0,28.3,0,68.3,0,26.3,0,27.7,0,27.5,0
2004/9/4,2:30,23.6,0,71.0,0,28.2,0,68.2,0,26.3,0,27.6,0,27.5,0
2004/9/4,2:45,23.4,0,69.0,0,28.2,0,68.3,0,26.3,0,27.6,0,27.4,0
2004/9/4,3:00,23.3,0,72.0,0,28.1,0,68.2,0,26.4,0,27.6,0,27.3,0
2004/9/4,3:15,23.0,0,73.0,0,28.1,0,68.1,0,26.5,0,27.6,0,27.3,0
2004/9/4,3:30,23.1,0,73.0,0,28.0,0,68.0,0,26.5,0,27.5,0,27.2,0
2004/9/4,3:45,23.2,0,74.0,0,28.0,0,68.0,0,26.5,0,27.5,0,27.2,0
2004/9/4,4:00,23.4,0,69.0,0,27.9,0,67.9,0,26.6,0,27.5,0,27.1,0
2004/9/4,4:15,23.4,0,74.0,0,27.8,0,68.0,0,26.6,0,27.5,0,27.1,0
2004/9/4,4:30,23.2,0,76.0,0,27.8,0,68.0,0,26.7,0,27.4,0,27.0,0
2004/9/4,4:45,23.3,0,74.0,0,27.8,0,68.0,0,26.7,0,27.4,0,27.0,0
2004/9/4,5:00,23.2,0,74.0,0,27.7,0,68.0,0,26.7,0,27.4,0,26.9,0
2004/9/4,5:15,23.4,0,72.0,0,27.7,0,68.1,0,26.8,0,27.3,0,26.9,0
2004/9/4,5:30,22.9,0,76.0,0,27.6,0,68.1,0,26.8,0,27.3,0,26.8,0
2004/9/4,5:45,22.8,0,75.0,0,27.6,0,68.1,0,26.9,0,27.3,0,26.8,0
2004/9/4,6:00,23.0,0,73.0,0,27.5,0,68.1,0,26.9,0,27.3,0,26.7,0
2004/9/4,6:15,23.1,0,73.0,0,27.5,0,68.2,0,26.9,0,27.2,0,26.7,0
2004/9/4,6:30,23.2,0,73.0,0,27.4,0,68.2,0,27.0,0,27.2,0,26.6,0
2004/9/4,6:45,23.2,0,74.0,0,27.4,0,68.3,0,27.0,0,27.2,0,26.6,0
2004/9/4,7:00,23.0,0,75.0,0,27.4,0,68.2,0,27.0,0,27.2,0,26.6,0
2004/9/4,7:15,23.4,0,72.0,0,27.4,0,68.2,0,26.6,0,27.1,0,26.5,0
2004/9/4,7:30,24.0,0,69.0,0,27.4,0,68.5,0,26.6,0,27.1,0,26.5,0
2004/9/4,7:45,24.0,0,69.0,0,27.4,0,68.6,0,26.4,0,27.1,0,26.5,0
2004/9/4,8:00,24.1,0,69.0,0,27.4,0,69.0,0,26.3,0,27.1,0,26.6,0
2004/9/4,8:15,24.4,0,70.0,0,27.5,0,69.1,0,26.3,0,27.1,0,26.6,0
2004/9/4,8:30,24.6,0,74.0,0,27.5,0,68.9,0,26.3,0,27.1,0,26.6,0
2004/9/4,8:45,24.1,0,78.0,0,27.5,0,68.6,0,25.9,0,27.1,0,26.7,0
2004/9/4,9:00,24.2,0,81.0,0,27.6,0,68.6,0,25.9,0,27.1,0,26.8,0
2004/9/4,9:15,24.2,0,80.0,0,27.6,0,68.7,0,26.0,0,27.1,0,26.8,0
2004/9/4,9:30,24.2,0,74.0,0,27.6,0,68.5,0,26.0,0,27.1,0,26.9,0
2004/9/4,9:45,24.3,0,75.0,0,27.6,0,68.6,0,26.1,0,27.1,0,26.9,0
2004/9/4,10:00,24.7,0,70.0,0,27.6,0,68.3,0,26.1,0,27.1,0,27.0,0
2004/9/4,10:15,25.1,0,68.0,0,27.7,0,68.2,0,26.2,0,27.1,0,27.0,0
2004/9/4,10:30,25.6,0,67.0,0,27.7,0,68.1,0,26.2,0,27.1,0,27.1,0
2004/9/4,10:45,25.5,0,71.0,0,27.8,0,67.7,0,26.3,0,27.1,0,27.1,0
2004/9/4,11:00,25.6,0,73.0,0,27.9,0,67.7,0,26.3,0,27.1,0,27.2,0
2004/9/4,11:15,25.8,0,70.0,0,28.0,0,67.6,0,26.4,0,27.1,0,27.2,0
2004/9/4,11:30,26.2,0,67.0,0,28.0,0,67.7,0,25.6,0,27.1,0,27.3,0
2004/9/4,11:45,26.5,0,65.0,0,28.0,0,67.8,0,25.6,0,27.1,0,27.3,0
2004/9/4,12:00,26.8,0,64.0,0,28.0,0,67.8,0,25.7,0,27.1,0,27.4,0
2004/9/4,12:15,27.3,0,63.0,0,28.1,0,67.5,0,25.7,0,27.1,0,27.4,0
2004/9/4,12:30,27.7,0,62.0,0,28.1,0,67.7,0,25.8,0,27.2,0,27.5,0
2004/9/4,12:45,27.9,0,65.0,0,28.2,0,67.4,0,25.8,0,27.2,0,27.6,0
2004/9/4,13:00,27.8,0,65.0,0,28.2,0,67.4,0,25.9,0,27.2,0,27.7,0
2004/9/4,13:15,27.9,0,68.0,0,28.3,0,67.5,0,26.0,0,27.2,0,27.7,0
2004/9/4,13:30,28.7,0,66.0,0,28.3,0,67.5,0,25.5,0,27.2,0,27.8,0
2004/9/4,13:45,28.7,0,65.0,0,28.4,0,67.4,0,25.5,0,27.3,0,27.9,0
2004/9/4,14:00,28.7,0,63.0,0,28.5,0,67.4,0,25.6,0,27.3,0,28.0,0
2004/9/4,14:15,28.9,0,63.0,0,28.6,0,67.5,0,25.6,0,27.4,0,28.1,0
2004/9/4,14:30,28.8,0,61.0,0,28.6,0,67.7,0,25.7,0,27.4,0,28.1,0
2004/9/4,14:45,28.9,0,60.0,0,28.6,0,67.8,0,25.7,0,27.5,0,28.2,0
2004/9/4,15:00,29.0,0,60.0,0,28.7,0,67.9,0,25.8,0,27.5,0,28.2,0
2004/9/4,15:15,29.3,0,59.0,0,28.8,0,67.8,0,25.9,0,27.5,0,28.3,0
2004/9/4,15:30,29.3,0,59.0,0,28.9,0,67.7,0,25.9,0,27.6,0,28.4,0
2004/9/4,15:45,29.3,0,59.0,0,28.9,0,67.8,0,26.0,0,27.6,0,28.5,0
2004/9/4,16:00,29.2,0,60.0,0,29.0,0,67.7,0,25.7,0,27.7,0,28.6,0
2004/9/4,16:15,29.2,0,60.0,0,29.0,0,67.6,0,25.7,0,27.7,0,28.6,0
2004/9/4,16:30,29.2,0,61.0,0,29.0,0,67.7,0,25.8,0,27.7,0,28.7,0
2004/9/4,16:45,29.2,0,62.0,0,29.1,0,67.5,0,25.8,0,27.8,0,28.7,0
2004/9/4,17:00,29.0,0,63.0,0,29.1,0,67.6,0,25.9,0,27.8,0,28.8,0
2004/9/4,17:15,28.5,0,65.0,0,29.1,0,67.7,0,26.0,0,27.9,0,28.8,0
2004/9/4,17:30,28.4,0,66.0,0,29.1,0,68.0,0,26.1,0,27.9,0,28.9,0
2004/9/4,17:45,28.2,0,66.0,0,29.1,0,68.2,0,26.4,0,27.9,0,28.9,0
2004/9/4,18:00,27.8,0,66.0,0,29.1,0,68.6,0,26.4,0,27.9,0,28.9,0
2004/9/4,18:15,27.7,0,68.0,0,29.1,0,68.5,0,26.5,0,27.9,0,29.0,0
2004/9/4,18:30,27.6,0,68.0,0,29.1,0,68.5,0,26.5,0,28.0,0,29.0,0
2004/9/4,18:45,27.5,0,68.0,0,29.0,0,68.5,0,26.6,0,28.0,0,29.0,0
2004/9/4,19:00,27.4,0,70.0,0,29.0,0,68.5,0,26.6,0,28.0,0,29.0,0
2004/9/4,19:15,27.0,0,73.0,0,29.0,0,68.6,0,26.7,0,28.0,0,28.9,0
2004/9/4,19:30,26.9,0,74.0,0,28.9,0,68.6,0,26.7,0,28.0,0,28.9,0
2004/9/4,19:45,26.7,0,75.0,0,28.9,0,68.7,0,26.8,0,28.0,0,28.9,0
2004/9/4,20:00,26.5,0,74.0,0,28.9,0,68.9,0,26.8,0,28.0,0,28.8,0